Location: Newark
(48.9320°N, 2.2664°E)
Time: 09:12:37
(UTC+00:00)

Vanguard 2 - Visible Passes

Search period start: 17 February 2020 00:00
Search period end: 27 February 2020 00:00
Orbit: 552 x 2939 km, 32.9° (Epoch: 17 February)

Date Brightness Start Highest point End Pass type
(mag) Time Alt. Az. Time Alt. Az. Time Alt. Az.
17 Feb 11.5 01:16:06 11° ESE 01:16:06 11° ESE 01:17:29 10° ESE visible
17 Feb 10.7 03:17:31 25° S 03:22:32 31° SSE 03:36:12 10° E visible
17 Feb 10.9 05:18:56 11° WSW 05:32:20 44° S 05:48:27 10° ESE visible
18 Feb 11.3 01:33:00 15° SE 01:33:00 15° SE 01:38:55 10° ESE visible
18 Feb 10.6 03:34:25 27° S 03:39:51 35° SSE 03:54:19 10° E visible
18 Feb 10.9 05:36:10 10° WSW 05:49:55 44° S 06:06:06 10° ESE visible
19 Feb 11.1 01:49:51 20° SE 01:49:51 20° SE 01:58:12 10° E visible
19 Feb 10.5 03:51:15 28° SSW 03:57:15 38° SSE 04:12:16 10° ESE visible
19 Feb 10.9 05:53:47 10° WSW 06:07:32 44° S 06:23:38 10° ESE visible
20 Feb 10.8 02:06:40 24° SE 02:06:40 24° SE 02:16:51 10° E visible
20 Feb 10.5 04:08:04 27° SSW 04:14:43 40° SSE 04:30:06 10° ESE visible
20 Feb 11.0 06:11:29 10° WSW 06:25:08 42° S 06:41:01 10° SE visible
21 Feb 10.6 02:23:27 28° SSE 02:23:27 28° SSE 02:35:10 10° E visible
21 Feb 10.5 04:24:50 25° SW 04:32:16 42° S 04:47:50 10° ESE visible
22 Feb 10.4 02:40:13 32° SSE 02:40:23 32° SSE 02:53:15 10° ESE visible
22 Feb 10.5 04:41:36 22° SW 04:49:51 42° S 05:05:27 10° ESE visible
23 Feb 11.3 00:55:34 12° ESE 00:55:34 12° ESE 00:57:02 10° ESE visible
23 Feb 10.3 02:56:58 35° SSE 02:57:47 35° SSE 03:11:11 10° ESE visible
23 Feb 10.6 04:58:22 19° WSW 05:07:28 41° S 05:22:56 10° ESE visible
24 Feb 11.1 01:12:19 16° ESE 01:12:19 16° ESE 01:15:43 10° ESE visible
24 Feb 10.1 03:13:43 36° S 03:15:16 37° SSE 03:29:01 10° ESE visible
24 Feb 10.7 05:15:07 15° WSW 05:25:04 39° S 05:40:15 10° SE visible
25 Feb 10.9 01:29:05 20° ESE 01:29:05 20° ESE 01:34:00 10° ESE visible
25 Feb 10.1 03:30:29 36° SSW 03:32:49 38° S 03:46:42 10° ESE visible
25 Feb 10.8 05:31:53 12° WSW 05:42:41 35° SSW 05:57:22 10° SE visible
26 Feb 10.8 01:45:52 23° SE 01:45:52 23° SE 01:52:05 10° ESE visible
26 Feb 10.1 03:47:16 33° SSW 03:50:24 38° S 04:04:16 10° ESE visible
26 Feb 10.8 05:49:18 10° WSW 06:00:16 31° SSW 06:14:12 10° SSE visible
